Home   Weather   Stamford   Past weeks

Flag for USA Past Weather in Stamford, Connecticut, USA — Yesterday and Last 2 Weeks

66 °F

Light rain. Fog.

Feels Like: 66 °F
Forecast: 63 / 73 °F
Wind: 6 mph from East

Location: Westchester County Airport

Current Time: Oct 21, 2016 at 9:17:50 AM

Latest Report: Oct 21, 2016 at 8:56 AM

Visibility: 0 mi

Pressure: 29.78 "Hg

Humidity: 100%

Dew Point: 66 °F

Location of StamfordLocation

Past Weather in Stamford — Graph


Stamford Temperature Yesterday

Maximum temperature yesterday: 68 °F (at 12:56 PM)
Minimum temperature yesterday: 55 °F (at 2:56 AM)
Average temperature yesterday: 62 °F

High & Low Weather Summary for the Past Weeks

High82 °F (Oct 19, 1:56 PM)100% (Oct 13, 4:56 AM)30.47 "Hg (Oct 13, 4:56 AM)
Low40 °F (Oct 14, 5:56 AM)27% (Oct 10, 1:56 PM)29.80 "Hg (Oct 21, 7:56 AM)
Average59 °F72%30.15 "Hg
* Reported Oct 6 7:56 AM — Oct 21 7:56 AM, Stamford, Weather by CustomWeather, © 2016

Note: Actual official high and low records may vary slightly from our data, if they occured in-between our weather recording intervals... More about our weather records


Stamford Weather History for the Previous 24 Hours

Scroll right to see more
Time TempWeatherWind HumidityBarometerVisibility
7:56 AM
Fri, Oct 21
66 °FFog.6 mph96%29.80 "Hg1 mi
6:56 AM66 °FFog.5 mph96%29.82 "Hg1 mi
5:56 AM66 °FFog.5 mph96%29.84 "Hg5 mi
4:56 AM66 °FFog.6 mph96%29.86 "Hg3 mi
3:56 AM65 °FFog.No wind97%29.87 "Hg0 mi
2:56 AM64 °FFog.5 mph100%29.89 "Hg0 mi
1:56 AM63 °FFog.8 mph100%29.91 "Hg0 mi
12:56 AM63 °FFog.6 mph97%29.94 "Hg0 mi
11:56 PM
Thu, Oct 20
63 °FFog.7 mph97%29.97 "Hg1 mi
10:56 PM62 °FDrizzle. Fog.10 mph96%29.99 "Hg0 mi
9:56 PM62 °FDrizzle. Fog.10 mph96%30.00 "Hg1 mi
8:56 PM62 °FDrizzle. Fog.8 mph96%30.02 "Hg1 mi
7:56 PM62 °FDrizzle. Fog.13 mph96%30.03 "Hg1 mi
6:56 PM62 °FDrizzle. Fog.7 mph96%30.04 "Hg1 mi
5:56 PM63 °FFog.8 mph93%30.05 "Hg4 mi
4:56 PM64 °FMostly cloudy.8 mph84%30.06 "Hg6 mi
3:56 PM66 °FPartly sunny.14 mph75%30.06 "Hg10 mi
2:56 PM68 °FPartly sunny.13 mph68%30.08 "Hg10 mi
1:56 PM67 °FScattered clouds.12 mph71%30.09 "Hg10 mi
12:56 PM68 °FScattered clouds.10 mph63%30.11 "Hg10 mi
11:56 AM66 °FPassing clouds.10 mph63%30.14 "Hg10 mi
10:56 AM65 °FPartly sunny.14 mph59%30.14 "Hg10 mi
9:56 AM64 °FScattered clouds.12 mph61%30.15 "Hg10 mi
Weather by CustomWeather, © 2016

See weather overviewHow to use our weather pages